Weather History for Flippin, AR

Change the Weather History Date:

Monday, November 14, 2011

  Actual Average Record
Temperature  
Mean Temperature 66 °F -  
Max Temperature 80 °F 58 °F 80 °F (2011)
Min Temperature 53 °F 38 °F 26 °F (2000)
Cooling Degree Days 2    
Growing Degree Days 16 (Base 50)    
Moisture  
Dew Point 50 °F    
Average Humidity 55    
Maximum Humidity 82    
Minimum Humidity 39    
Precipitation  
Precipitation 0.40 in - - ()
Sea Level Pressure  
Sea Level Pressure 29.73 in    
Wind  
Wind Speed 10 mph (SW)    
Max Wind Speed 22 mph    
Max Gust Speed 31 mph    
Visibility 10 miles    
Events      
Averages and records for this station are not official NWS values.
T = Trace of Precipitation, MM = Missing Value Source: NWS Daily Summary

Daily Weather History Graph

Daily Weather History Graph

Search for Another Location

Airport:

Trip Planner

Search our weather history database for the weather conditions in past years. The results will help you decide how hot, cold, wet, or windy it might be!

Date:

Astronomy

Nov. 14, 2011 Rise Set
Actual Time 6:46 AM CST 5:02 PM CST
Civil Twilight 6:18 AM CST 5:30 PM CST
Nautical Twilight 5:47 AM CST 6:01 PM CST
Astronomical Twilight 5:17 AM CST 6:31 PM CST
Moon 8:12 PM CST (11/14) 10:02 AM CST (11/14)
Length of Visible Light 11h 11m
Length of Day
10h 16m
Waning Gibbous, 86% of the Moon is Illuminated
Nov 14
Waning Gibbous
Nov 18
Last Quarter
Nov 25
New
Dec 2
First Quarter
Dec 10
Full

Hourly Weather History & Observations

Time (CST) Temp. Heat Index Dew Point Humidity Pressure Visibility Wind Dir Wind Speed Gust Speed Precip Events Conditions
12:15 AM - - - N/A% 29.69 in 10.0 mi South 10.4 mph 16.1 mph N/A   Clear
12:35 AM - - - N/A% 29.69 in 10.0 mi South 5.8 mph 16.1 mph N/A   Clear
12:55 AM - - - N/A% 29.68 in 10.0 mi SSW 8.1 mph - N/A   Clear
1:15 AM - - - N/A% 29.68 in 10.0 mi SSW 5.8 mph 19.6 mph N/A   Clear
1:35 AM - - - N/A% 29.68 in 10.0 mi South 10.4 mph - N/A   Clear
1:55 AM - - - N/A% 29.68 in 10.0 mi SSW 8.1 mph 18.4 mph N/A   Clear
2:15 AM - - - N/A% 29.68 in 10.0 mi SSW 13.8 mph 19.6 mph N/A   Clear
2:35 AM - - - N/A% 29.68 in 10.0 mi SSW 10.4 mph 20.7 mph N/A   Clear
2:55 AM - - - N/A% 29.68 in 10.0 mi SSW 6.9 mph 16.1 mph N/A   Clear
3:15 AM - - - N/A% 29.67 in 10.0 mi SSW 12.7 mph 17.3 mph N/A   Clear
3:35 AM - - - N/A% 29.67 in 10.0 mi SW 10.4 mph 16.1 mph N/A   Clear
3:55 AM - - - N/A% 29.68 in 10.0 mi SSW 11.5 mph 19.6 mph N/A   Clear
4:15 AM - - - N/A% 29.67 in 10.0 mi SSW 8.1 mph 20.7 mph N/A   Clear
4:55 AM - - - N/A% 29.68 in 10.0 mi SSW 10.4 mph - N/A   Clear
5:15 AM - - - N/A% 29.68 in 10.0 mi SSW 9.2 mph - N/A   Clear
6:15 AM - - - N/A% 29.68 in 10.0 mi SSW 11.5 mph 20.7 mph N/A   Clear
6:35 AM - - - N/A% 29.68 in 10.0 mi SW 13.8 mph 20.7 mph N/A   Clear
6:55 AM - - - N/A% 29.69 in 10.0 mi SW 10.4 mph 18.4 mph N/A   Clear
7:35 AM - - - N/A% 29.70 in 10.0 mi SSW 10.4 mph 21.9 mph N/A   Clear
7:55 AM - - - N/A% 29.71 in 10.0 mi SW 10.4 mph - N/A   Clear
8:15 AM - - - N/A% 29.71 in 10.0 mi SSW 11.5 mph 20.7 mph N/A   Clear
8:35 AM - - - N/A% 29.71 in 10.0 mi SW 16.1 mph 24.2 mph N/A   Clear
8:55 AM - - - N/A% 29.71 in 10.0 mi SSW 16.1 mph 25.3 mph N/A   Clear
9:15 AM - - - N/A% 29.71 in 10.0 mi SW 18.4 mph 25.3 mph N/A   Clear
9:35 AM - - - N/A% 29.72 in 10.0 mi SSW 21.9 mph 31.1 mph N/A   Partly Cloudy
9:55 AM - - - N/A% 29.72 in 10.0 mi SW 16.1 mph 29.9 mph N/A   Partly Cloudy
10:35 AM - - - N/A% 29.73 in 10.0 mi SW 16.1 mph 31.1 mph N/A   Mostly Cloudy
10:55 AM - - - N/A% 29.72 in 10.0 mi WSW 19.6 mph 27.6 mph N/A   Partly Cloudy
11:35 AM - - - N/A% 29.72 in 10.0 mi SW 16.1 mph 29.9 mph N/A   Scattered Clouds
11:55 AM - - - N/A% 29.70 in 10.0 mi SW 17.3 mph 24.2 mph N/A   Partly Cloudy
12:15 PM 80.6 °F 80.5 °F 55.4 °F 42% 29.70 in 10.0 mi SSW 15.0 mph 24.2 mph N/A   Clear
12:35 PM - - - N/A% 29.69 in 10.0 mi SW 13.8 mph 21.9 mph N/A   Clear
1:15 PM 80.6 °F 80.5 °F 55.4 °F 42% 29.70 in 10.0 mi WSW 16.1 mph 25.3 mph N/A   Partly Cloudy
1:35 PM - - - N/A% 29.70 in 10.0 mi SW 11.5 mph 24.2 mph N/A   Partly Cloudy
1:55 PM 80.6 °F 80.3 °F 53.6 °F 39% 29.70 in 10.0 mi SW 17.3 mph 24.2 mph N/A   Scattered Clouds
2:15 PM - - - N/A% 29.69 in 10.0 mi WSW 15.0 mph 18.4 mph N/A   Mostly Cloudy
2:35 PM - - - N/A% 29.70 in 10.0 mi WSW 12.7 mph - N/A   Overcast
2:55 PM 75.2 °F - 53.6 °F 47% 29.71 in 7.0 mi WSW 13.8 mph 21.9 mph 0.01 in   Mostly Cloudy
3:15 PM - - - N/A% 29.71 in 10.0 mi WNW 11.5 mph - N/A   Mostly Cloudy
3:35 PM - - - N/A% 29.73 in 10.0 mi NW 13.8 mph 19.6 mph N/A   Overcast
3:55 PM - - - N/A% 29.74 in 10.0 mi NW 20.7 mph 24.2 mph N/A   Mostly Cloudy
4:15 PM - - - N/A% 29.75 in 10.0 mi NW 12.7 mph 19.6 mph N/A   Overcast
4:35 PM - - - N/A% 29.75 in 10.0 mi NW 17.3 mph 27.6 mph N/A   Overcast
4:55 PM - - - N/A% 29.76 in 10.0 mi NW 10.4 mph 20.7 mph N/A   Mostly Cloudy
5:15 PM - - - N/A% 29.76 in 10.0 mi West 5.8 mph - N/A   Mostly Cloudy
5:35 PM - - - N/A% 29.77 in 10.0 mi NW 6.9 mph - N/A   Mostly Cloudy
5:55 PM - - - N/A% 29.77 in 10.0 mi NW 6.9 mph - N/A   Overcast
6:15 PM - - - N/A% 29.78 in 10.0 mi WNW 3.5 mph - N/A   Overcast
6:35 PM - - - N/A% 29.78 in 10.0 mi Calm Calm - N/A   Overcast
6:55 PM 64.4 °F - 41.0 °F 42% 29.80 in 10.0 mi WNW 5.8 mph - N/A   Overcast
7:35 PM 55.4 °F - 46.4 °F 72% 29.85 in 10.0 mi WSW 5.8 mph - 0.21 in   Overcast
7:55 PM 53.6 °F - 46.4 °F 77% 29.84 in 10.0 mi WSW 3.5 mph - 0.28 in   Overcast
8:15 PM 53.6 °F - 48.2 °F 82% 29.86 in 9.0 mi SW 5.8 mph - 0.06 in   Overcast
9:15 PM - - - N/A% 29.85 in 10.0 mi SW 3.5 mph - 0.03 in   Overcast
9:35 PM - - - N/A% 29.82 in 10.0 mi South 3.5 mph - 0.05 in   Overcast
9:55 PM - - - N/A% 29.81 in 10.0 mi WSW 3.5 mph - 0.05 in   Overcast
10:15 PM - - - N/A% 29.82 in 10.0 mi South 3.5 mph - N/A   Overcast
10:35 PM - - - N/A% 29.82 in 10.0 mi SSW 4.6 mph - N/A   Overcast
10:55 PM - - - N/A% 29.83 in 10.0 mi SSW 5.8 mph - N/A   Overcast
11:15 PM - - - N/A% 29.82 in 10.0 mi Calm Calm - N/A   Overcast
11:35 PM - - - N/A% 29.83 in 10.0 mi SE 3.5 mph - N/A   Overcast
11:55 PM 53.6 °F - 48.2 °F 82% 29.81 in 10.0 mi Calm Calm - N/A   Overcast